Location: Northcutt
(34.7304°N, 84.4305°W)
Time: 19:16:10
(UTC+00:00)

Transit 2A Rocket - Pass Details

Date: 11 October 2022
Orbit: 589 x 911 km, 66.7° (Epoch: 03 December)

Event Time Altitude Azimuth Distance (km) Brightness Sun altitude
Rises 09:45:31 0° 235° (SW) 2,833 - -24.3°
Reaches altitude 10° 09:48:07 10° 250° (WSW) 1,917 - -23.8°
Maximum altitude 09:51:35 24° 304° (NW) 1,241 - -23.1°
Exits shadow 09:53:46 16° 345° (NNW) 1,547 6.5 -22.6°
Drops below altitude 10° 09:55:05 10° 359° (N) 1,930 7.2 -22.4°
Sets 09:57:43 0° 14° (NNE) 2,858 8.2 -21.8°
